DW9417 Weather Reports


time (UTC)temp
F
wind
direction
speed
knots
gust
knots
rain 1hr
in
rain 24hr
in
rain mn
in
humidity
%
barometer
mb
20260503191542 46 222 0.0 0.0 0.00 0.00 0.00 85 1027.8
20260503190047 47 222 0.9 2.6 0.00 0.00 0.00 84 1027.7
20260503184554 46 222 1.7 4.3 0.00 0.00 0.00 85 1027.9
20260503183053 46 222 0.0 3.5 0.00 0.00 0.00 85 1027.9
20260503181538 46 121 0.0 0.0 0.00 0.00 0.00 84 1027.6
20260503180036 46 121 0.0 0.0 0.00 0.00 0.00 85 1027.6
20260503174535 46 121 0.0 0.0 0.00 0.00 0.00 86 1027.6
20260503173033 46 121 0.0 0.0 0.00 0.00 0.00 85 1027.3
20260503171531 45 122 0.0 0.0 0.00 0.00 0.00 85 1027.4
20260503081615 66 115 4.3 8.7 0.00 0.00 0.00 50 1024.7
20260503080103 66 150 3.5 7.0 0.00 0.00 0.00 50 1024.7
20260503071544 66 107 4.3 8.7 0.00 0.00 0.00 51 1024.9
20260503054533 64 22 1.7 7.8 0.00 0.00 0.00 62 1025.3
20260503053032 63 340 0.9 5.2 0.00 0.00 0.00 63 1025.3
20260503051529 64 17 1.7 7.0 0.00 0.00 0.00 63 1025.4
20260503050035 63 63 2.6 7.0 0.00 0.00 0.00 63 1025.6
20260503044524 61 54 1.7 5.2 0.00 0.00 0.00 66 1025.9
20260503043023 61 56 2.6 6.1 0.00 0.00 0.00 67 1026.2
20260503041519 60 150 0.0 6.1 0.00 0.00 0.00 70 1026.5
20260503040016 59 126 1.7 6.1 0.00 0.00 0.00 71 1027.0
20260503034514 59 101 0.9 4.3 0.00 0.00 0.00 72 1027.1
20260503033012 58 107 1.7 7.0 0.00 0.00 0.00 75 1027.1
20260503031507 57 117 3.5 7.0 0.00 0.00 0.00 77 1027.4
20260503030006 56 103 3.5 7.0 0.00 0.00 0.00 78 1027.5
20260503024507 56 107 2.6 8.7 0.00 0.00 0.00 78 1027.7
20260503023003 56 142 3.5 8.7 0.00 0.00 0.00 78 1027.7
20260503021501 56 125 5.2 8.7 0.00 0.00 0.00 80 1027.8
20260503020058 54 107 5.2 7.8 0.00 0.00 0.00 85 1027.8
20260503014559 53 111 0.9 3.5 0.00 0.00 0.00 88 1027.8
20260503013055 51 111 0.0 2.6 0.00 0.00 0.00 90 1028.0
20260503011600 50 111 0.9 3.5 0.00 0.00 0.00 91 1028.1
20260503010053 50 110 0.9 3.5 0.00 0.00 0.00 91 1028.1
20260503004551 50 99 1.7 5.2 0.00 0.00 0.00 92 1028.1
20260503003049 49 111 1.7 5.2 0.00 0.00 0.00 92 1027.9
20260503001559 48 159 2.6 7.0 0.00 0.00 0.00 92 1027.9
20260503000100 48 165 0.9 7.8 0.00 0.00 0.00 92 1027.7
20260502234546 46 161 0.9 4.3 0.00 0.00 0.00 92 1027.5
20260502233058 44 162 0.0 0.0 0.00 0.00 0.00 92 1027.2
20260502231557 43 162 0.0 0.0 0.00 0.00 0.00 92 1027.0
20260502230039 41 163 0.0 0.0 0.00 0.00 0.00 91 1026.9
20260502224536 41 161 0.0 0.0 0.00 0.00 0.00 89 1026.6
20260502223033 41 159 0.0 0.0 0.00 0.00 0.00 89 1026.4
20260502221532 41 159 0.0 0.0 0.00 0.00 0.00 88 1026.2
20260502220036 42 159 0.0 0.0 0.00 0.00 0.00 89 1026.0
20260502214527 42 161 0.0 0.0 0.00 0.00 0.00 89 1025.9
20260502213026 42 161 0.0 0.0 0.00 0.00 0.00 88 1025.9
20260502211534 42 159 0.0 0.0 0.00 0.00 0.00 87 1025.7
20260502210021 43 159 0.0 0.0 0.00 0.00 0.00 87 1025.7
20260502204520 43 160 0.0 0.0 0.00 0.00 0.00 88 1025.6
20260502203019 43 160 0.0 0.0 0.00 0.00 0.00 86 1025.6
20260502201516 44 160 0.0 0.0 0.00 0.00 0.00 86 1025.5
20260502200014 44 159 0.0 0.0 0.00 0.00 0.00 86 1025.4
20260502194512 45 160 0.0 0.0 0.00 0.00 0.00 86 1025.4
20260502193013 45 159 0.0 0.0 0.00 0.00 0.00 86 1025.4